Other Surface Observations
Issued by NWS Missoula, MT

Home | Current Version | Previous Version | Text Only | Print | Product List | Glossary On
Versions: 1 2 3 4 5 6 7 8 9 10 11 12 13 14 15 16 17 18 19 20 21 22 23 24 25 26 27 28 29 30 31 32 33 34 35 36 37 38 39 40 41 42 43 44 45 46 47 48 49 50
000
SXUS55 KMSO 170923
OSOMSO
MONTANA AWOS SUMMARY
NATIONAL WEATHER SERVICE MISSOULA MT
323 AM MDT WED SEP 17 2014

Montana AWOS Reports

LAUREL      |K6S8 170915Z AUTO 28006KT 40SM 16/06 A2994 RMK AO1 T01610056
ROUNDUP     |KRPX 170915Z AUTO 20005KT 40SM 12/07 A2985 RMK AO1 T01220072
MALTA       |KM75 170855Z AUTO 00000KT 40SM 09/07 A2986 RMK AO1 T00940067




USA.gov is the U.S. government's official web portal to all federal, state and local government web resources and services.